This demonstration page uses our WeatherBlox Daily Observations layout. Learn more.

Left ArrowRight Arrow

39.92423, -83.80882

Hourly Observations for March 17, 2018

Temp ( °F °C ) Dew Point ( °F °C ) Humidity (%) Winds ( mph kmh ) Pressure ( in mb ) Visibility ( mi km ) Precip ( " mm )
12:56 am 00:56 Clear 26 -3.3 17 -8.3 69 69 E 8 13 30.08 1019 10 16 N/A
1:56 am 01:56 Clear 27 -2.8 18 -7.8 69 69 E 9 15 30.04 1017 10 16 N/A
2:56 am 02:56 Clear 32 undefined 20 -6.7 61 61 E 9 15 30.01 1016 10 16 N/A
3:56 am 03:56 Clear 33 0.6 17 -8.3 52 52 ESE 6 9 30.01 1016 10 16 N/A
4:56 am 04:56 Mostly Clear with Light Wintry Mix 32 undefined 21 -6.1 64 64 SE 5 7 29.99 1016 10 16 N/A
5:56 am 05:56 Partly Cloudy with Isolated Snow Showers 32 undefined 25 -3.9 75 75 E 12 19 29.95 1014 8 13 0.01 0.25
6:56 am 06:56 Partly Cloudy with Isolated Snow Showers 31 -0.6 27 -2.8 85 85 E 10 17 29.95 1014 8 13 0.04 1.02
7:56 am 07:56 Sunny 31 -0.6 27 -2.8 85 85 E 13 20 29.93 1014 10 16 0.02 0.51
8:56 am 08:56 Partly Cloudy with Isolated Snow Showers 31 -0.6 27 -2.8 85 85 E 12 19 29.93 1014 9 14 N/A
9:56 am 09:56 Sunny 31 -0.6 28 -2.2 89 89 E 9 15 29.94 1014 10 16 N/A
10:56 am 10:56 Sunny 32 undefined 27 -2.8 82 82 E 13 20 29.94 1014 10 16 0.01 0.25
11:56 am 11:56 Sunny 35 1.7 29 -1.7 78 78 E 16 26 29.93 1014 10 16 0.01 0.25
12:56 pm 12:56 Sunny 38 3.3 30 -1.1 73 73 E 13 20 29.93 1014 10 16 N/A
1:56 pm 13:56 Sunny 41 5 29 -1.7 62 62 E 14 22 29.91 1013 10 16 N/A
2:56 pm 14:56 Sunny 42 5.6 26 -3.3 53 53 E 17 28 29.86 1011 10 16 N/A
3:56 pm 15:56 Sunny 44 6.7 27 -2.8 51 51 E 12 19 29.85 1011 10 16 N/A
4:56 pm 16:56 Sunny 44 6.7 32 undefined 63 63 E 13 20 29.85 1011 10 16 N/A
5:56 pm 17:56 Partly Cloudy with Light Rain 43 6.1 30 -1.1 60 60 ENE 12 19 29.88 1012 10 16 N/A
6:56 pm 18:56 Sunny 41 5 31 -0.6 67 67 NE 16 26 29.88 1012 10 16 N/A
7:56 pm 19:56 Clear 36 2.2 32 undefined 86 86 NE 15 24 29.89 1012 10 16 N/A
8:56 pm 20:56 Clear 36 2.2 32 undefined 86 86 NE 13 20 29.91 1013 10 16 N/A
9:56 pm 21:56 Clear 36 2.2 30 -1.1 79 79 NNE 8 13 29.95 1014 10 16 N/A
10:56 pm 22:56 Clear 36 2.2 26 -3.3 67 67 NE 12 19 29.98 1015 10 16 N/A
11:56 pm 23:56 Clear 36 2.2 25 -3.9 64 64 NE 8 13 30.00 1016 10 16 N/A

Powered by AerisWeather